Regional Weather Roundup
Issued by NWS

Home | Current Version | Previous Version | Graphics & Text | Print | Product List | Glossary On
Versions: 1 2 3 4 5 6 7 8 9 10 11 12 13 14 15 16 17 18 19 20 21 22 23 24 25 26 27 28 29 30 31 32 33 34 35 36 37 38 39 40 41 42 43 44 45 46 47 48 49 50
000
ASUS43 KOAX 260402
RWRNE

WEATHER ROUNDUP FOR NEBRASKA
NATIONAL WEATHER SERVICE OMAHA NE
1000 PM CST TUE NOV 25 2014

NOTES: SATELLITE DATA IS BEING USED TO AUGMENT CLOUD COVER ABOVE
       12000 FEET.
       "FAIR" INDICATES FEW OR NO CLOUDS BELOW 12,000 FEET WITH NO
       SIGNIFICANT WEATHER AND/OR OBSTRUCTIONS TO VISIBILITY.

  * THESE STATIONS DO NOT REPORT WEATHER SUCH AS RAIN...SNOW OR FOG.

NEZ001>004-019>022-054>056-260500-
NEBRASKA PANHANDLE

CITY           SKY/WX    TMP DP  RH WIND       PRES   REMARKS
SCOTTSBLUFF    CLOUDY    34  32  92 NW13      30.04R WCI  25
ALLIANCE       CLOUDY    35  24  64 NW22G30   29.95R WCI  23
CHADRON        CLOUDY    45  26  47 NW23      29.99R
SIDNEY         LGT SNOW  32  30  92 NW15      30.01R FOG     WCI  22
$$

NEZ057>060-069>072-079>082-260500-
SOUTHWEST NEBRASKA

CITY           SKY/WX    TMP DP  RH WIND       PRES   REMARKS
NORTH PLATTE   CLOUDY    38  31  76 NW10      29.92R WCI  31
IMPERIAL       CLOUDY    40  30  67 NW17      29.95R WCI  31
MCCOOK         CLOUDY    43  31  62 NW13      29.93R
$$

NEZ005>010-023>029-035>040-094-260500-
NORTH CENTRAL NEBRASKA

CITY           SKY/WX    TMP DP  RH WIND       PRES   REMARKS
VALENTINE      MOCLDY    36  27  69 NW14G22   29.88R WCI  27
BROKEN BOW     CLOUDY    40  29  64 NW17      29.88R WCI  31
ORD            LGT RAIN  39  32  76 NW13      29.85R WCI  31
$$

NEZ041-046>049-061>064-073>077-083>087-260500-
SOUTH CENTRAL NEBRASKA

CITY           SKY/WX    TMP DP  RH WIND       PRES   REMARKS
GRAND ISLAND   CLOUDY    42  30  62 NW16G28   29.86R
HASTINGS       CLOUDY    42  27  55 W15       29.87R
KEARNEY *      CLOUDY    39  28  65 W9        29.90S WCI  33
$$

NEZ011>018-030>034-042>045-260500-
NORTHEAST NEBRASKA

CITY           SKY/WX    TMP DP  RH WIND       PRES   REMARKS
NORFOLK        CLOUDY    39  30  70 W6        29.79S WCI  35
COLUMBUS *     CLOUDY    43  28  56 SW10      29.82F
TEKAMAH        LGT RAIN  38  33  82 SE12      29.87F WCI  30
$$

NEZ050>053-065>068-078-088>093-260500-
SOUTHEAST NEBRASKA

CITY           SKY/WX    TMP DP  RH WIND       PRES   REMARKS
LINCOLN        CLOUDY    43  25  49 S18G25    29.85F
OMAHA EPPLEY   LGT RAIN  38  27  64 SE15      29.89F WCI  29
FALLS CITY     CLOUDY    40  23  50 S13       29.93F WCI  32
$$

NEZ044-045-051>053-067-260500-
OMAHA AREA

CITY           SKY/WX    TMP DP  RH WIND       PRES   REMARKS
OMAHA EPPLEY   LGT RAIN  38  27  64 SE15      29.89F WCI  29
OFFUTT AFB     CLOUDY    37  26  64 SE13      29.87F WCI  29
$$


USA.gov is the U.S. government's official web portal to all federal, state and local government web resources and services.